Time,TemperatureF,DewpointF,PressureIn,WindDirection,WindDirectionDegrees,WindSpeedMPH,WindSpeedGustMPH,Humidity,HourlyPrecipIn,Conditions,Clouds,dailyrainin,SoftwareType,DateUTC
2013-01-08 00:03:00,47.8,46.2,29.95,East,90,4.2,-999.0,94,-99.99,,,0.00,Acu-Link.com,2013-01-08 06:03:00,
2013-01-08 00:18:00,47.7,46.9,29.95,East,90,4.2,-999.0,97,-99.99,,,0.00,Acu-Link.com,2013-01-08 06:18:00,
2013-01-08 00:33:00,47.7,47.2,29.95,ESE,112,2.7,-999.0,98,-99.99,,,0.00,Acu-Link.com,2013-01-08 06:33:00,
2013-01-08 00:49:00,47.7,47.2,29.95,East,90,2.7,-999.0,98,-99.99,,,0.00,Acu-Link.com,2013-01-08 06:49:00,
2013-01-08 01:04:00,47.8,47.3,29.95,ESE,112,2.7,-999.0,98,-99.99,,,0.00,Acu-Link.com,2013-01-08 07:04:00,
2013-01-08 01:19:00,47.8,47.3,29.94,East,90,1.1,-999.0,98,-99.99,,,0.00,Acu-Link.com,2013-01-08 07:19:00,
2013-01-08 01:34:00,47.7,47.2,29.94,East,90,3.2,-999.0,98,-99.99,,,0.00,Acu-Link.com,2013-01-08 07:34:00,
2013-01-08 01:49:00,47.7,47.2,29.94,East,90,2.7,-999.0,98,-99.99,,,0.00,Acu-Link.com,2013-01-08 07:49:00,
2013-01-08 02:04:00,47.5,47.0,29.94,ESE,112,0.0,-999.0,98,-99.99,,,0.00,Acu-Link.com,2013-01-08 08:04:00,
2013-01-08 02:19:00,47.5,47.0,29.94,ESE,112,2.7,-999.0,98,-99.99,,,0.00,Acu-Link.com,2013-01-08 08:19:00,
2013-01-08 02:34:00,47.1,46.6,29.94,East,90,2.7,-999.0,98,-99.99,,,0.00,Acu-Link.com,2013-01-08 08:34:00,
2013-01-08 02:49:00,46.6,46.1,29.94,ESE,112,3.2,-999.0,98,-99.99,,,0.00,Acu-Link.com,2013-01-08 08:49:00,
2013-01-08 03:08:00,46.4,45.9,29.93,East,90,5.3,-999.0,98,-99.99,,,0.00,Acu-Link.com,2013-01-08 09:08:00,
2013-01-08 03:24:00,46.4,45.9,29.92,ESE,112,2.7,-999.0,98,-99.99,,,0.00,Acu-Link.com,2013-01-08 09:24:00,
2013-01-08 03:39:00,46.6,46.1,29.92,East,90,4.2,-999.0,98,-99.99,,,0.00,Acu-Link.com,2013-01-08 09:39:00,
2013-01-08 03:54:00,46.8,46.3,29.91,East,90,2.2,-999.0,98,-99.99,,,0.00,Acu-Link.com,2013-01-08 09:54:00,
2013-01-08 04:09:00,46.8,46.3,29.91,East,90,2.7,-999.0,98,-99.99,,,0.00,Acu-Link.com,2013-01-08 10:09:00,
2013-01-08 04:24:00,46.4,45.9,29.91,East,90,3.7,-999.0,98,-99.99,,,0.00,Acu-Link.com,2013-01-08 10:24:00,
2013-01-08 04:39:00,46.0,45.5,29.90,ESE,112,3.2,-999.0,98,-99.99,,,0.00,Acu-Link.com,2013-01-08 10:39:00,
2013-01-08 04:54:00,46.0,45.5,29.91,ESE,112,2.2,-999.0,98,-99.99,,,0.00,Acu-Link.com,2013-01-08 10:54:00,
2013-01-08 05:09:00,45.7,45.2,29.88,ENE,67,3.2,-999.0,98,-99.99,,,0.01,Acu-Link.com,2013-01-08 11:09:00,
2013-01-08 05:24:00,45.5,45.0,29.87,ESE,112,2.7,-999.0,98,-99.99,,,0.01,Acu-Link.com,2013-01-08 11:24:00,
2013-01-08 05:40:00,45.3,44.8,29.87,ESE,112,2.2,-999.0,98,-99.99,,,0.01,Acu-Link.com,2013-01-08 11:40:00,
2013-01-08 05:55:00,45.3,44.8,29.87,East,90,3.2,-999.0,98,-99.99,,,0.02,Acu-Link.com,2013-01-08 11:55:00,
2013-01-08 06:10:00,45.3,44.8,29.87,East,90,4.2,-999.0,98,-99.99,,,0.02,Acu-Link.com,2013-01-08 12:10:00,
2013-01-08 06:25:00,45.3,44.8,29.89,ESE,112,3.2,-999.0,98,-99.99,,,0.02,Acu-Link.com,2013-01-08 12:25:00,
2013-01-08 06:40:00,45.1,44.6,29.89,NW,315,0.0,-999.0,98,-99.99,,,0.02,Acu-Link.com,2013-01-08 12:40:00,
2013-01-08 06:55:00,45.1,44.6,29.90,NE,45,0.0,-999.0,98,-99.99,,,0.02,Acu-Link.com,2013-01-08 12:55:00,
2013-01-08 07:10:00,45.0,44.5,29.88,NNE,22,2.2,-999.0,98,-99.99,,,0.02,Acu-Link.com,2013-01-08 13:10:00,
2013-01-08 07:25:00,45.0,44.5,29.89,NE,45,2.2,-999.0,98,-99.99,,,0.02,Acu-Link.com,2013-01-08 13:25:00,
2013-01-08 07:40:00,45.0,44.5,29.89,NE,45,2.7,-999.0,98,-99.99,,,0.02,Acu-Link.com,2013-01-08 13:40:00,
2013-01-08 07:56:00,45.1,44.6,29.88,East,90,5.3,-999.0,98,-99.99,,,0.02,Acu-Link.com,2013-01-08 13:56:00,
2013-01-08 08:11:00,45.7,45.2,29.90,North,0,1.7,-999.0,98,-99.99,,,0.02,Acu-Link.com,2013-01-08 14:11:00,
2013-01-08 08:26:00,45.9,45.4,29.90,East,90,2.2,-999.0,98,-99.99,,,0.03,Acu-Link.com,2013-01-08 14:26:00,
2013-01-08 08:41:00,45.7,45.2,29.89,NE,45,1.7,-999.0,98,-99.99,,,0.03,Acu-Link.com,2013-01-08 14:41:00,
2013-01-08 08:56:00,45.9,45.4,29.90,NE,45,0.0,-999.0,98,-99.99,,,0.03,Acu-Link.com,2013-01-08 14:56:00,
2013-01-08 09:11:00,45.9,45.4,29.91,ENE,67,0.0,-999.0,98,-99.99,,,0.03,Acu-Link.com,2013-01-08 15:11:00,
2013-01-08 09:26:00,46.2,45.7,29.92,East,90,0.0,-999.0,98,-99.99,,,0.03,Acu-Link.com,2013-01-08 15:26:00,
2013-01-08 09:41:00,46.6,46.1,29.91,ESE,112,2.7,-999.0,98,-99.99,,,0.03,Acu-Link.com,2013-01-08 15:41:00,
2013-01-08 09:56:00,46.8,46.3,29.91,East,90,2.2,-999.0,98,-99.99,,,0.03,Acu-Link.com,2013-01-08 15:56:00,
2013-01-08 10:12:00,47.1,46.6,29.89,East,90,2.2,-999.0,98,-99.99,,,0.03,Acu-Link.com,2013-01-08 16:12:00,
2013-01-08 10:27:00,47.3,46.8,29.88,NE,45,2.7,-999.0,98,-99.99,,,0.03,Acu-Link.com,2013-01-08 16:27:00,
2013-01-08 10:42:00,47.3,46.8,29.91,ENE,67,0.0,-999.0,98,-99.99,,,0.03,Acu-Link.com,2013-01-08 16:42:00,
2013-01-08 10:57:00,47.3,46.8,29.89,NE,45,0.0,-999.0,98,-99.99,,,0.03,Acu-Link.com,2013-01-08 16:57:00,
2013-01-08 11:12:00,47.3,46.8,29.87,NE,45,2.2,-999.0,98,-99.99,,,0.04,Acu-Link.com,2013-01-08 17:12:00,
2013-01-08 11:27:00,47.3,46.8,29.88,West,270,2.2,-999.0,98,-99.99,,,0.04,Acu-Link.com,2013-01-08 17:27:00,
2013-01-08 11:42:00,47.5,47.0,29.88,ESE,112,1.7,-999.0,98,-99.99,,,0.04,Acu-Link.com,2013-01-08 17:42:00,
2013-01-08 11:57:00,49.3,48.8,29.82,East,90,5.8,-999.0,98,-99.99,,,0.05,Acu-Link.com,2013-01-08 17:57:00,
2013-01-08 12:12:00,48.9,48.4,29.83,North,0,1.1,-999.0,98,-99.99,,,0.05,Acu-Link.com,2013-01-08 18:12:00,
2013-01-08 12:28:00,49.1,48.6,29.82,ESE,112,0.0,-999.0,98,-99.99,,,0.05,Acu-Link.com,2013-01-08 18:28:00,
2013-01-08 12:43:00,49.3,48.8,29.82,NNE,22,3.2,-999.0,98,-99.99,,,0.07,Acu-Link.com,2013-01-08 18:43:00,
2013-01-08 12:58:00,49.3,48.8,29.80,NNE,22,2.2,-999.0,98,-99.99,,,0.10,Acu-Link.com,2013-01-08 18:58:00,
2013-01-08 13:13:00,49.6,49.1,29.80,East,90,0.0,-999.0,98,-99.99,,,0.12,Acu-Link.com,2013-01-08 19:13:00,
2013-01-08 13:28:00,50.2,49.7,29.79,East,90,0.0,-999.0,98,-99.99,,,0.12,Acu-Link.com,2013-01-08 19:28:00,
2013-01-08 13:43:00,50.5,50.0,29.78,NE,45,1.7,-999.0,98,-99.99,,,0.14,Acu-Link.com,2013-01-08 19:43:00,
2013-01-08 13:58:00,50.4,49.9,29.78,NE,45,2.2,-999.0,98,-99.99,,,0.15,Acu-Link.com,2013-01-08 19:58:00,
2013-01-08 14:13:00,50.4,49.9,29.77,East,90,2.7,-999.0,98,-99.99,,,0.16,Acu-Link.com,2013-01-08 20:13:00,
2013-01-08 14:28:00,50.4,49.9,29.79,NNE,22,0.0,-999.0,98,-99.99,,,0.18,Acu-Link.com,2013-01-08 20:28:00,
2013-01-08 14:44:00,50.5,50.0,29.78,NNE,22,3.2,-999.0,98,-99.99,,,0.24,Acu-Link.com,2013-01-08 20:44:00,
2013-01-08 14:59:00,50.4,49.9,29.78,WNW,292,0.0,-999.0,98,-99.99,,,0.24,Acu-Link.com,2013-01-08 20:59:00,
2013-01-08 15:14:00,50.4,49.9,29.78,North,0,0.0,-999.0,98,-99.99,,,0.24,Acu-Link.com,2013-01-08 21:14:00,
2013-01-08 15:29:00,50.2,49.7,29.78,NNW,337,1.7,-999.0,98,-99.99,,,0.24,Acu-Link.com,2013-01-08 21:29:00,
2013-01-08 15:44:00,50.5,50.0,29.79,WNW,292,0.0,-999.0,98,-99.99,,,0.27,Acu-Link.com,2013-01-08 21:44:00,
2013-01-08 15:59:00,50.4,49.9,29.79,WNW,292,1.1,-999.0,98,-99.99,,,0.27,Acu-Link.com,2013-01-08 21:59:00,
2013-01-08 16:14:00,50.5,50.0,29.79,NNE,22,0.0,-999.0,98,-99.99,,,0.28,Acu-Link.com,2013-01-08 22:14:00,
2013-01-08 16:29:00,50.7,50.2,29.78,NE,45,0.0,-999.0,98,-99.99,,,0.28,Acu-Link.com,2013-01-08 22:29:00,
2013-01-08 16:44:00,50.7,50.2,29.78,NNE,22,1.1,-999.0,98,-99.99,,,0.28,Acu-Link.com,2013-01-08 22:44:00,
2013-01-08 17:00:00,50.4,49.9,29.78,North,0,1.7,-999.0,98,-99.99,,,0.28,Acu-Link.com,2013-01-08 23:00:00,
2013-01-08 17:15:00,50.2,49.7,29.79,ENE,67,1.1,-999.0,98,-99.99,,,0.28,Acu-Link.com,2013-01-08 23:15:00,
2013-01-08 17:30:00,50.2,49.7,29.80,SW,225,0.0,-999.0,98,-99.99,,,0.28,Acu-Link.com,2013-01-08 23:30:00,
2013-01-08 17:45:00,50.0,49.5,29.80,West,270,2.7,-999.0,98,-99.99,,,0.28,Acu-Link.com,2013-01-08 23:45:00,
2013-01-08 18:00:00,49.8,49.3,29.80,East,90,2.7,-999.0,98,-99.99,,,0.28,Acu-Link.com,2013-01-09 00:00:00,
2013-01-08 18:15:00,49.6,49.1,29.80,ENE,67,0.0,-999.0,98,-99.99,,,0.30,Acu-Link.com,2013-01-09 00:15:00,
2013-01-08 18:30:00,49.6,49.1,29.80,NE,45,0.0,-999.0,98,-99.99,,,0.30,Acu-Link.com,2013-01-09 00:30:00,
2013-01-08 18:45:00,49.6,49.1,29.80,NNE,22,0.0,-999.0,98,-99.99,,,0.30,Acu-Link.com,2013-01-09 00:45:00,
2013-01-08 19:00:00,49.6,49.1,29.80,ENE,67,1.7,-999.0,98,-99.99,,,0.30,Acu-Link.com,2013-01-09 01:00:00,
2013-01-08 19:15:00,49.6,49.1,29.80,ENE,67,0.0,-999.0,98,-99.99,,,0.32,Acu-Link.com,2013-01-09 01:15:00,
2013-01-08 19:31:00,49.8,49.3,29.81,NW,315,0.0,-999.0,98,-99.99,,,0.33,Acu-Link.com,2013-01-09 01:31:00,
2013-01-08 19:46:00,49.8,49.3,29.82,WSW,247,1.1,-999.0,98,-99.99,,,0.34,Acu-Link.com,2013-01-09 01:46:00,
2013-01-08 20:01:00,49.8,49.3,29.83,NW,315,4.2,-999.0,98,-99.99,,,0.34,Acu-Link.com,2013-01-09 02:01:00,
2013-01-08 20:16:00,50.0,49.5,29.83,West,270,3.7,-999.0,98,-99.99,,,0.35,Acu-Link.com,2013-01-09 02:16:00,
2013-01-08 20:31:00,49.6,49.1,29.83,West,270,4.2,-999.0,98,-99.99,,,0.44,Acu-Link.com,2013-01-09 02:31:00,
2013-01-08 20:46:00,49.5,49.0,29.84,WSW,247,6.3,-999.0,98,-99.99,,,0.47,Acu-Link.com,2013-01-09 02:46:00,
2013-01-08 21:01:00,49.3,48.8,29.85,West,270,4.2,-999.0,98,-99.99,,,0.53,Acu-Link.com,2013-01-09 03:01:00,
2013-01-08 21:16:00,49.3,48.8,29.86,NW,315,4.2,-999.0,98,-99.99,,,0.55,Acu-Link.com,2013-01-09 03:16:00,
2013-01-08 21:31:00,48.9,48.4,29.86,WNW,292,4.7,-999.0,98,-99.99,,,0.56,Acu-Link.com,2013-01-09 03:31:00,
2013-01-08 21:47:00,48.7,48.2,29.88,West,270,3.2,-999.0,98,-99.99,,,0.56,Acu-Link.com,2013-01-09 03:47:00,
2013-01-08 22:02:00,48.7,48.2,29.87,West,270,4.2,-999.0,98,-99.99,,,0.56,Acu-Link.com,2013-01-09 04:02:00,
2013-01-08 22:17:00,49.1,48.6,29.87,NW,315,3.7,-999.0,98,-99.99,,,0.59,Acu-Link.com,2013-01-09 04:17:00,
2013-01-08 22:32:00,49.5,49.0,29.86,NW,315,4.2,-999.0,98,-99.99,,,0.59,Acu-Link.com,2013-01-09 04:32:00,
2013-01-08 22:47:00,50.0,49.5,29.86,NE,45,2.7,-999.0,98,-99.99,,,0.68,Acu-Link.com,2013-01-09 04:47:00,
2013-01-08 23:17:00,50.9,50.4,29.87,ENE,67,2.7,-999.0,98,-99.99,,,0.78,Acu-Link.com,2013-01-09 05:17:00,
2013-01-08 23:32:00,51.4,50.9,29.87,NNE,22,2.2,-999.0,98,-99.99,,,0.81,Acu-Link.com,2013-01-09 05:32:00,
2013-01-08 23:47:00,51.8,51.3,29.87,NW,315,2.7,-999.0,98,-99.99,,,0.82,Acu-Link.com,2013-01-09 05:47:00,